| time (UTC) | temp F | wind direction | speed MPH | gust MPH | rain 1hr in | rain 24hr in | rain mn in | humidity % | barometer mb |
| 20260906143014 | 70 | 235 | 0.0 | 0.0 | 0.00 | 0.00 | 0.00 | 74 | 1016.4 |
| 20260906141515 | 69 | 151 | 0.0 | 0.0 | 0.00 | 0.00 | 0.00 | 73 | 1016.4 |
| 20260906140023 | 68 | 189 | 0.0 | 0.0 | 0.00 | 0.00 | 0.00 | 72 | 1016.5 |
| 20260906134510 | 66 | 189 | 0.0 | 0.0 | 0.00 | 0.00 | 0.00 | 72 | 1016.5 |
| 20260906133021 | 65 | 189 | 0.0 | 0.0 | 0.00 | 0.00 | 0.00 | 72 | 1016.3 |
| 20260906131509 | 64 | 189 | 0.0 | 0.0 | 0.00 | 0.00 | 0.00 | 72 | 1016.4 |
| 20260906130019 | 63 | 189 | 0.0 | 0.0 | 0.00 | 0.00 | 0.00 | 72 | 1016.3 |
| 20260906124507 | 62 | 189 | 0.0 | 0.0 | 0.00 | 0.00 | 0.00 | 72 | 1016.2 |
| 20260906123006 | 62 | 189 | 0.0 | 0.0 | 0.00 | 0.00 | 0.00 | 72 | 1016.2 |
| 20260906121504 | 61 | 189 | 0.0 | 0.0 | 0.00 | 0.00 | 0.00 | 72 | 1015.8 |
| 20260906120004 | 61 | 189 | 0.0 | 0.0 | 0.00 | 0.00 | 0.00 | 72 | 1016.0 |
| 20260906114507 | 61 | 189 | 0.0 | 0.0 | 0.00 | 0.00 | 0.00 | 72 | 1015.8 |
| 20260906113005 | 62 | 189 | 0.0 | 0.0 | 0.00 | 0.00 | 0.00 | 72 | 1015.9 |
| 20260906111616 | 62 | 189 | 0.0 | 0.0 | 0.00 | 0.00 | 0.00 | 72 | 1015.4 |
| 20260906110058 | 62 | 189 | 0.0 | 0.0 | 0.00 | 0.00 | 0.00 | 72 | 1014.8 |
| 20260906104556 | 62 | 189 | 0.0 | 0.0 | 0.00 | 0.00 | 0.00 | 72 | 1014.9 |
| 20260906103055 | 63 | 189 | 0.0 | 0.0 | 0.00 | 0.00 | 0.00 | 72 | 1014.9 |
| 20260906101554 | 63 | 189 | 0.0 | 0.0 | 0.00 | 0.00 | 0.00 | 72 | 1014.9 |
| 20260906100100 | 63 | 189 | 0.0 | 0.0 | 0.00 | 0.00 | 0.00 | 72 | 1014.8 |
| 20260906094554 | 63 | 189 | 0.0 | 0.0 | 0.00 | 0.00 | 0.00 | 72 | 1014.8 |
| 20260906093053 | 63 | 189 | 0.0 | 0.0 | 0.00 | 0.00 | 0.00 | 72 | 1015.0 |
| 20260906091550 | 63 | 189 | 0.0 | 0.0 | 0.00 | 0.00 | 0.00 | 72 | 1014.8 |
| 20260906090049 | 64 | 189 | 0.0 | 0.0 | 0.00 | 0.00 | 0.00 | 72 | 1014.9 |
| 20260906084554 | 64 | 189 | 0.0 | 0.0 | 0.00 | 0.00 | 0.00 | 72 | 1014.6 |
| 20260906083047 | 64 | 189 | 0.0 | 0.0 | 0.00 | 0.00 | 0.00 | 72 | 1014.8 |
| 20260906081546 | 64 | 189 | 0.0 | 0.0 | 0.00 | 0.00 | 0.00 | 72 | 1014.7 |
| 20260906080053 | 64 | 189 | 0.0 | 0.0 | 0.00 | 0.00 | 0.00 | 72 | 1014.5 |
| 20260906074549 | 65 | 189 | 0.0 | 0.0 | 0.00 | 0.00 | 0.00 | 72 | 1014.5 |
| 20260906073043 | 65 | 189 | 0.0 | 0.0 | 0.00 | 0.00 | 0.00 | 72 | 1014.5 |
| 20260906071541 | 65 | 189 | 0.0 | 0.0 | 0.00 | 0.00 | 0.00 | 72 | 1014.5 |
| 20260906070041 | 65 | 189 | 0.0 | 0.0 | 0.00 | 0.00 | 0.00 | 72 | 1014.6 |
| 20260906064540 | 65 | 189 | 0.0 | 0.0 | 0.00 | 0.00 | 0.00 | 72 | 1014.9 |
| 20260906063044 | 65 | 189 | 0.0 | 0.0 | 0.00 | 0.00 | 0.00 | 72 | 1014.8 |
| 20260906061539 | 66 | 189 | 0.0 | 0.0 | 0.00 | 0.00 | 0.00 | 72 | 1014.9 |
| 20260906060037 | 66 | 189 | 0.0 | 0.0 | 0.00 | 0.00 | 0.00 | 72 | 1014.9 |
| 20260906054551 | 66 | 189 | 0.0 | 0.0 | 0.00 | 0.00 | 0.00 | 72 | 1014.6 |
| 20260906053034 | 67 | 189 | 0.0 | 0.0 | 0.00 | 0.00 | 0.00 | 73 | 1014.6 |
| 20260906051535 | 67 | 189 | 0.0 | 0.0 | 0.00 | 0.00 | 0.00 | 73 | 1014.7 |
| 20260906050038 | 67 | 189 | 0.0 | 0.0 | 0.00 | 0.00 | 0.00 | 73 | 1014.8 |
| 20260906044530 | 67 | 189 | 0.0 | 0.0 | 0.00 | 0.00 | 0.00 | 73 | 1014.5 |
| 20260906043028 | 68 | 189 | 0.0 | 0.0 | 0.00 | 0.00 | 0.00 | 74 | 1014.4 |
| 20260906041525 | 68 | 189 | 0.0 | 0.0 | 0.00 | 0.00 | 0.00 | 74 | 1014.2 |
| 20260906040021 | 69 | 189 | 0.0 | 0.0 | 0.00 | 0.00 | 0.00 | 75 | 1014.0 |
| 20260906034521 | 69 | 189 | 0.0 | 0.0 | 0.00 | 0.00 | 0.01 | 75 | 1013.7 |
| 20260906033017 | 70 | 189 | 0.0 | 0.0 | 0.00 | 0.00 | 0.01 | 75 | 1013.7 |
| 20260906031547 | 70 | 189 | 0.0 | 0.0 | 0.00 | 0.00 | 0.01 | 76 | 1013.7 |
| 20260906030014 | 71 | 189 | 0.0 | 0.0 | 0.00 | 0.00 | 0.01 | 76 | 1013.5 |
| 20260906024534 | 71 | 189 | 0.0 | 0.0 | 0.00 | 0.00 | 0.01 | 76 | 1013.4 |
| 20260906023010 | 71 | 189 | 0.0 | 0.0 | 0.00 | 0.00 | 0.01 | 77 | 1013.2 |
| 20260906021508 | 72 | 189 | 0.0 | 0.0 | 0.00 | 0.00 | 0.01 | 77 | 1013.0 |
| 20260906020007 | 72 | 189 | 0.0 | 0.0 | 0.00 | 0.00 | 0.01 | 77 | 1012.7 |
| 20260906014515 | 73 | 186 | 0.0 | 0.0 | 0.00 | 0.00 | 0.01 | 77 | 1012.5 |
| 20260906013007 | 74 | 132 | 0.0 | 0.0 | 0.00 | 0.00 | 0.01 | 77 | 1012.3 |
| 20260906011506 | 74 | 180 | 0.0 | 0.0 | 0.00 | 0.00 | 0.01 | 77 | 1012.3 |
| 20260906010008 | 75 | 180 | 0.0 | 0.0 | 0.00 | 0.00 | 0.01 | 77 | 1012.3 |
| 20260906004505 | 75 | 180 | 0.0 | 0.0 | 0.00 | 0.00 | 0.01 | 78 | 1012.3 |
| 20260906003006 | 76 | 170 | 0.0 | 0.0 | 0.00 | 0.00 | 0.01 | 77 | 1012.1 |
| 20260906001503 | 76 | 181 | 1.0 | 0.0 | 0.00 | 0.00 | 0.01 | 77 | 1012.3 |
| 20260906000007 | 77 | 183 | 0.0 | 0.0 | 0.00 | 0.00 | 0.01 | 77 | 1012.1 |
| 20260905234502 | 78 | 180 | 0.0 | 0.0 | 0.00 | 0.00 | 0.01 | 76 | 1012.3 |
| 20260905233002 | 78 | 183 | 0.0 | 0.0 | 0.00 | 0.00 | 0.01 | 75 | 1012.2 |
| 20260905231502 | 79 | 176 | 0.0 | 0.0 | 0.00 | 0.00 | 0.01 | 75 | 1012.2 |
| 20260905230100 | 80 | 174 | 1.0 | 0.0 | 0.00 | 0.00 | 0.01 | 72 | 1012.3 |
| 20260905224603 | 80 | 186 | 0.0 | 0.0 | 0.00 | 0.00 | 0.01 | 73 | 1012.2 |
| 20260905223100 | 80 | 181 | 0.0 | 0.0 | 0.00 | 0.00 | 0.01 | 72 | 1012.1 |
| 20260905221558 | 81 | 179 | 1.0 | 0.0 | 0.00 | 0.00 | 0.01 | 72 | 1011.9 |
| 20260905220058 | 81 | 180 | 1.0 | 0.0 | 0.00 | 0.00 | 0.01 | 71 | 1011.7 |
| 20260905214558 | 81 | 180 | 1.0 | 0.0 | 0.00 | 0.00 | 0.01 | 72 | 1011.9 |
| 20260905213101 | 81 | 176 | 1.0 | 0.0 | 0.00 | 0.00 | 0.01 | 72 | 1011.9 |
| 20260905211608 | 81 | 175 | 1.0 | 0.0 | 0.00 | 0.00 | 0.01 | 74 | 1012.0 |
| 20260905204558 | 80 | 178 | 1.0 | 0.0 | 0.00 | 0.00 | 0.01 | 73 | 1012.0 |
| 20260905203054 | 79 | 166 | 1.0 | 0.0 | 0.00 | 0.00 | 0.01 | 75 | 1011.8 |
| 20260905201556 | 79 | 178 | 1.0 | 0.0 | 0.00 | 0.00 | 0.01 | 76 | 1011.7 |
| 20260905200101 | 79 | 189 | 1.0 | 0.0 | 0.00 | 0.00 | 0.01 | 76 | 1012.1 |
| 20260905194547 | 79 | 187 | 0.0 | 0.0 | 0.00 | 0.00 | 0.01 | 77 | 1012.1 |
| 20260905193046 | 78 | 175 | 0.0 | 0.0 | 0.00 | 0.00 | 0.01 | 76 | 1012.2 |
| 20260905191546 | 78 | 181 | 0.0 | 0.0 | 0.00 | 0.00 | 0.01 | 76 | 1012.3 |
| 20260905190045 | 78 | 176 | 1.0 | 0.0 | 0.00 | 0.00 | 0.01 | 76 | 1012.4 |
| 20260905184543 | 78 | 178 | 0.0 | 0.0 | 0.00 | 0.00 | 0.01 | 77 | 1012.4 |
| 20260905183044 | 77 | 174 | 0.0 | 0.0 | 0.00 | 0.00 | 0.01 | 77 | 1012.5 |
| 20260905181541 | 77 | 174 | 1.0 | 0.0 | 0.00 | 0.00 | 0.01 | 78 | 1012.5 |
| 20260905180039 | 77 | 174 | 1.0 | 0.0 | 0.00 | 0.00 | 0.01 | 78 | 1012.6 |
| 20260905174539 | 77 | 174 | 1.0 | 0.0 | 0.00 | 0.00 | 0.01 | 78 | 1012.6 |
| 20260905173053 | 76 | 173 | 0.0 | 0.0 | 0.00 | 0.00 | 0.01 | 78 | 1012.6 |
| 20260905171538 | 75 | 173 | 0.0 | 0.0 | 0.00 | 0.00 | 0.01 | 77 | 1012.7 |
| 20260905170034 | 74 | 173 | 0.0 | 0.0 | 0.00 | 0.00 | 0.01 | 76 | 1012.6 |
| 20260905164533 | 74 | 173 | 0.0 | 0.0 | 0.00 | 0.00 | 0.01 | 76 | 1012.8 |
| 20260905163032 | 74 | 173 | 0.0 | 0.0 | 0.00 | 0.00 | 0.01 | 75 | 1012.9 |
| 20260905161532 | 74 | 173 | 0.0 | 0.0 | 0.00 | 0.00 | 0.00 | 75 | 1012.8 |
| 20260905160034 | 73 | 173 | 0.0 | 0.0 | 0.00 | 0.00 | 0.00 | 74 | 1012.8 |
| 20260905154534 | 73 | 173 | 0.0 | 0.0 | 0.00 | 0.00 | 0.00 | 74 | 1012.8 |
| 20260905153029 | 73 | 173 | 0.0 | 0.0 | 0.00 | 0.00 | 0.00 | 74 | 1012.8 |
| 20260905151528 | 73 | 173 | 0.0 | 0.0 | 0.00 | 0.00 | 0.00 | 74 | 1012.7 |
| 20260905150027 | 73 | 173 | 0.0 | 0.0 | 0.00 | 0.00 | 0.00 | 74 | 1012.5 |
| 20260905144525 | 73 | 172 | 0.0 | 0.0 | 0.00 | 0.00 | 0.00 | 74 | 1012.2 |